Regional Weather Roundup
Issued by NWS

Home | Current Version | Previous Version | Graphics & Text | Print | Product List | Glossary On
Versions: 1 2 3 4 5 6 7 8 9 10 11 12 13 14 15 16 17 18 19 20 21 22 23 24 25 26 27 28 29 30 31 32 33 34 35 36 37 38 39 40 41 42 43 44 45 46 47 48 49 50
000
ASUS43 KIND 201709
RWRIN

WEATHER ROUNDUP FOR INDIANA
NATIONAL WEATHER SERVICE INDIANAPOLIS IN
100 PM EDT FRI APR 20 2018

NOTE: "FAIR" INDICATES FEW OR NO CLOUDS BELOW 12,000 FEET WITH NO
SIGNIFICANT WEATHER AND/OR OBSTRUCTIONS TO VISIBILITY.

* - STATION DOES NOT REPORT WEATHER SUCH AS PRECIPITATION OR FOG.

+ - STATION NOT QUALITY CONTROLLED BY THE NATIONAL WEATHER SERVICE.
    USE DATA WITH CAUTION...ESPECIALLY DEWPOINT AND RELATIVE
    HUMIDITY OBSERVATIONS.

INZ001>003-010>013-019-020-201800-
NORTHWEST INDIANA

CITY           SKY/WX    TMP DP  RH WIND       PRES   REMARKS
GARY /AIRPORT/ MOSUNNY   52  30  43 VRB5      30.53S
KNOX *+        FAIR      54  19  26 N7        30.51F
LA PORTE +     FAIR      53  22  29 N3        30.51F
MICHIGAN CITY+ FAIR      52  30  43 NW7       30.52F
MONTICELLO +   FAIR      53  19  26 SE3       30.50F
RENSSELAER +   FAIR      54   3  13 E3        30.52F
VALPARAISO     FAIR      58  22  24 VRB6      30.51F

$$

LMZ046-743>745-201800-
SOUTHERN LAKE MICHIGAN

STATION/POSITION TIME  TEMP    WIND        PRES    WAVE
                       AIR SEA DIR/SP/G            HT
                 (UTC) (F)     (DEG/KT/KT) (MB)    (FT)
BURNS HARBOR     1640   40     360/  4/  5 1034.2F
MICHIGAN CITY    1640   43     340/  5/  5   N/A

$$

INZ004-005-014>016-021>024-201800-
NORTH CENTRAL INDIANA

CITY           SKY/WX    TMP DP  RH WIND       PRES   REMARKS
ELKHART        FAIR      57  18  21 N3        30.50S
GOSHEN         FAIR      53  20  27 MISG      30.50S
LOGANSPORT +   FAIR      54  21  28 NE7       30.51F
PERU/GRISSOM   SUNNY     61  16  17 N5        30.47F
ROCHESTER +    FAIR      55  18  22 N8        30.50F
SOUTH BEND     FAIR      54  17  23 NW8       30.52S
WARSAW +       FAIR      52  19  28 N5        30.51S

$$

INZ006>009-017-018-025>027-201800-
NORTHEAST INDIANA

CITY           SKY/WX    TMP DP  RH WIND       PRES   REMARKS
ANGOLA *+      FAIR      52  18  25 NE7       30.49S
AUBURN +       FAIR      52  21  30 N7        30.49F
FORT WAYNE     FAIR      55  23  28 NW8       30.50F
HUNTINGTON +   FAIR      51  19  28 CALM      30.50S
KENDALLVILLE + FAIR      52   4  14 E6        30.49S

$$

INZ028-029-035-036-043>045-051>053-201800-
WEST CENTRAL INDIANA

CITY           SKY/WX    TMP DP  RH WIND       PRES   REMARKS
CRAWFORDSVL +  FAIR      53  23  31 NE8       30.50S
GREENCASTLE +  FAIR      54  21  28 NE7       30.49F
LAFAYETTE      FAIR      54  22  28 E9        30.51F
TERRE HAUTE    FAIR      57  19  22 E12       30.50S

$$

INZ030>032-037>040-046>048-054>057-064-065-201800-
CENTRAL INDIANA

CITY           SKY/WX    TMP DP  RH WIND       PRES   REMARKS
COLUMBUS       SUNNY     52 N/A N/A CALM      30.49F
FISHERS *+     FAIR      54  30  40 E7        30.49
FRANKFORT +    FAIR      57  21  24 NE8       30.51F
GREENWOOD *+   FAIR      53  21  29 E12       30.49F
INDIANAPOLIS   FAIR      55  16  21 NE13      30.49F
-EAGLE CREEK   FAIR      54  21  27 E10       30.48F
KOKOMO +       FAIR      53  21  28 NE5       30.51F
MARION +       FAIR      51  20  29 NE5       30.51S
MT COMFORT *+  FAIR      54  30  40 NE10      30.49F
SHELBYVILLE    FAIR      55  21  26 E8        30.48F
ZIONSVILLE +   FAIR      51  23  33 NE8       30.49F

$$

INZ033-034-041-042-049-050-058-059-201800-
EAST CENTRAL INDIANA

CITY           SKY/WX    TMP DP  RH WIND       PRES   REMARKS
MUNCIE         FAIR      53  18  25 VRB6      30.49S
RICHMOND +     FAIR      50  23  34 N3        30.48S

$$

INZ060-061-067>069-081>083-085>088-201800-
SOUTHWEST INDIANA

CITY           SKY/WX    TMP DP  RH WIND       PRES   REMARKS
EVANSVILLE     FAIR      57  24  28 E12G20    30.48F
HUNTINGBURG +  FAIR      56  27  32 NE9       30.47F
WASHINGTON +   FAIR      57  17  21 NE7       30.48F

$$

INZ062-063-066-070>080-084-089>092-201800-
SOUTH CENTRAL AND SOUTHEAST INDIANA

CITY           SKY/WX    TMP DP  RH WIND       PRES   REMARKS
BATESVILLE +   SUNNY     52  23  32 MISG      30.48S
BEDFORD +      FAIR      57  12  17 NE13      30.47F
BLOOMINGTON    FAIR      57  16  20 E13       30.47F
FRENCH LICK *+ FAIR      54   7  15 NE13      30.47F
MADISON *+     FAIR      54  18  24 N10       30.49F
NORTH VERNON + FAIR      52  23  32 NE7       30.48F
SEYMOUR +      FAIR      55  27  33 NE8       30.48F

$$





USA.gov is the U.S. government's official web portal to all federal, state and local government web resources and services.